METEOR 1-17

导读 | 豆包AI

METEOR 1-17是独联体(CIS)继承自苏联航天体系的流星一号气象卫星,于1974年4月24日发射入轨,属于苏联第一代极轨气象卫星序列。卫星运行在约900公里高度的近极轨道,配备电视相机、红外扫描仪等载荷,可获取全球气象观测数据,为气候研究、天气预报提供支撑,是早期全球气象观测网络的重要组成部分。

基本信息
目录编号:
7274
目录名称:
METEOR 1-17
国际标识:
1974-025A
轨道中心:
EARTH
卫星名称:
METEOR 1-17
卫星全名:
--
卫星状态:
在轨 (已飞行18953 天)
发射日期:
1974-04-24 UTC
国别 :
俄罗斯(独联体) (CIS)
星等 :
--
轨道信息
数据来源 国际轨道数据 AOE轨道数据
星历时间 2026-03-15T06:30:16+0800
11小时前
查看轨道信息
2026-03-11T15:00:00+0800
4天前
查看轨道信息
半长轴 7241.298km 7241.287km
偏心率 0.0015914 0.0015832
轨道倾角 81.213° 81.213°
近地点辐角 234.424° 244.363°
升交点赤经 29.134° 32.688°
平近点角 125.545° 353.256°
近地点 851.637km 851.685km
远地点 874.685km 874.615km
周期 102.208分钟 102.208分钟
每日圈数 14.088936 14.088967
详细信息
使用方式:
暂无
2D轨道图
3D轨道图
轨道高度分析图
轨道倾角分析图
轨道综合分析图
查看轨道综合分析图